| time (UTC) | temp F | wind direction | speed MPH | gust MPH | rain 1hr in | rain 24hr in | rain mn in | humidity % | barometer mb |
| 20260903011740 | 86 | 161 | 0.0 | 0.0 | 0.00 | 0.00 | 0.00 | 49 | 1017.3 |
| 20260903011239 | 87 | 161 | 0.0 | 0.0 | 0.00 | 0.00 | 0.00 | 49 | 1017.3 |
| 20260903010735 | 87 | 161 | 0.0 | 0.0 | 0.00 | 0.00 | 0.00 | 48 | 1017.2 |
| 20260903010230 | 87 | 161 | 0.0 | 0.0 | 0.00 | 0.00 | 0.00 | 48 | 1017.2 |
| 20260903005728 | 88 | 161 | 0.0 | 0.0 | 0.00 | 0.00 | 0.00 | 47 | 1017.1 |
| 20260903005224 | 88 | 161 | 0.0 | 0.0 | 0.00 | 0.00 | 0.00 | 47 | 1016.9 |
| 20260903004719 | 89 | 161 | 0.0 | 0.0 | 0.00 | 0.00 | 0.00 | 46 | 1017.0 |
| 20260903004215 | 89 | 161 | 0.0 | 0.0 | 0.00 | 0.00 | 0.00 | 46 | 1017.0 |
| 20260903003710 | 90 | 161 | 0.0 | 0.0 | 0.00 | 0.00 | 0.00 | 45 | 1017.0 |
| 20260903003205 | 91 | 161 | 0.0 | 0.0 | 0.00 | 0.00 | 0.00 | 44 | 1017.1 |
| 20260903002659 | 92 | 161 | 0.0 | 0.0 | 0.00 | 0.00 | 0.00 | 43 | 1017.1 |
| 20260903002154 | 92 | 161 | 0.0 | 0.0 | 0.00 | 0.00 | 0.00 | 42 | 1017.1 |
| 20260903001649 | 92 | 161 | 0.0 | 0.0 | 0.00 | 0.00 | 0.00 | 42 | 1017.0 |
| 20260903001143 | 93 | 161 | 0.0 | 0.0 | 0.00 | 0.00 | 0.00 | 42 | 1017.1 |
| 20260903000638 | 93 | 161 | 0.0 | 0.0 | 0.00 | 0.00 | 0.00 | 41 | 1017.0 |
| 20260903000132 | 94 | 161 | 0.0 | 0.0 | 0.00 | 0.00 | 0.00 | 40 | 1017.1 |
| 20260902235631 | 95 | 161 | 0.0 | 0.0 | 0.00 | 0.00 | 0.00 | 39 | 1017.2 |
| 20260902235126 | 96 | 161 | 0.0 | 0.0 | 0.00 | 0.00 | 0.00 | 38 | 1017.1 |
| 20260902234620 | 96 | 161 | 0.0 | 0.0 | 0.00 | 0.00 | 0.00 | 38 | 1016.9 |
| 20260902234118 | 97 | 161 | 0.0 | 0.0 | 0.00 | 0.00 | 0.00 | 37 | 1017.3 |
| 20260902233613 | 97 | 161 | 0.0 | 0.0 | 0.00 | 0.00 | 0.00 | 36 | 1017.1 |
| 20260902233108 | 98 | 162 | 0.0 | 0.0 | 0.00 | 0.00 | 0.00 | 36 | 1017.1 |
| 20260902232607 | 98 | 161 | 0.0 | 0.0 | 0.00 | 0.00 | 0.00 | 36 | 1017.2 |
| 20260902232101 | 99 | 162 | 0.0 | 0.0 | 0.00 | 0.00 | 0.00 | 35 | 1017.2 |
| 20260902231556 | 102 | 161 | 0.0 | 0.0 | 0.00 | 0.00 | 0.00 | 33 | 1017.2 |
| 20260902231051 | 102 | 162 | 0.0 | 0.0 | 0.00 | 0.00 | 0.00 | 32 | 1017.3 |
| 20260902230550 | 102 | 162 | 0.0 | 0.0 | 0.00 | 0.00 | 0.00 | 32 | 1017.4 |
| 20260902230049 | 101 | 162 | 0.0 | 0.0 | 0.00 | 0.00 | 0.00 | 33 | 1017.3 |
| 20260902225545 | 103 | 162 | 0.0 | 0.0 | 0.00 | 0.00 | 0.00 | 33 | 1017.3 |
| 20260902225044 | 103 | 162 | 0.0 | 0.0 | 0.00 | 0.00 | 0.00 | 32 | 1017.3 |
| 20260902224543 | 102 | 161 | 0.0 | 0.0 | 0.00 | 0.00 | 0.00 | 33 | 1017.3 |
| 20260902224039 | 101 | 161 | 0.0 | 0.0 | 0.00 | 0.00 | 0.00 | 33 | 1017.5 |
| 20260902223535 | 104 | 161 | 0.0 | 0.0 | 0.00 | 0.00 | 0.00 | 32 | 1017.3 |
| 20260902223034 | 106 | 161 | 0.0 | 0.0 | 0.00 | 0.00 | 0.00 | 30 | 1017.4 |
| 20260902222533 | 104 | 161 | 0.0 | 0.0 | 0.00 | 0.00 | 0.00 | 31 | 1017.5 |
| 20260902222033 | 106 | 161 | 0.0 | 0.0 | 0.00 | 0.00 | 0.00 | 31 | 1017.5 |
| 20260902221532 | 112 | 162 | 0.0 | 0.0 | 0.00 | 0.00 | 0.00 | 28 | 1017.5 |
| 20260902221028 | 111 | 162 | 0.0 | 0.0 | 0.00 | 0.00 | 0.00 | 27 | 1017.3 |
| 20260902220523 | 112 | 162 | 0.0 | 0.0 | 0.00 | 0.00 | 0.00 | 27 | 1017.6 |
| 20260902220017 | 113 | 162 | 0.0 | 0.0 | 0.00 | 0.00 | 0.00 | 27 | 1017.7 |
| 20260902215514 | 113 | 162 | 0.0 | 0.0 | 0.00 | 0.00 | 0.00 | 27 | 1017.7 |
| 20260902215009 | 109 | 162 | 0.0 | 0.0 | 0.00 | 0.00 | 0.00 | 28 | 1017.5 |
| 20260902214508 | 103 | 162 | 0.0 | 0.0 | 0.00 | 0.00 | 0.00 | 32 | 1017.6 |
| 20260902214007 | 105 | 161 | 0.0 | 0.0 | 0.00 | 0.00 | 0.00 | 33 | 1017.7 |
| 20260902213503 | 106 | 162 | 0.0 | 0.0 | 0.00 | 0.00 | 0.00 | 33 | 1017.7 |
| 20260902213002 | 108 | 162 | 0.0 | 0.0 | 0.00 | 0.00 | 0.00 | 30 | 1017.8 |
| 20260902212458 | 103 | 162 | 0.0 | 0.0 | 0.00 | 0.00 | 0.00 | 33 | 1017.9 |
| 20260902211954 | 102 | 161 | 0.0 | 0.0 | 0.00 | 0.00 | 0.00 | 35 | 1017.8 |
| 20260902211450 | 105 | 161 | 0.0 | 0.0 | 0.00 | 0.00 | 0.00 | 33 | 1017.9 |
| 20260902210945 | 108 | 161 | 0.0 | 0.0 | 0.00 | 0.00 | 0.00 | 31 | 1017.9 |
| 20260902210440 | 116 | 162 | 0.0 | 0.0 | 0.00 | 0.00 | 0.00 | 26 | 1017.8 |
| 20260902205938 | 114 | 162 | 0.0 | 0.0 | 0.00 | 0.00 | 0.00 | 26 | 1018.0 |
| 20260902205433 | 111 | 162 | 0.0 | 0.0 | 0.00 | 0.00 | 0.00 | 28 | 1018.0 |
| 20260902204929 | 115 | 161 | 0.0 | 0.0 | 0.00 | 0.00 | 0.00 | 27 | 1018.0 |
| 20260902204428 | 119 | 162 | 0.0 | 0.0 | 0.00 | 0.00 | 0.00 | 23 | 1018.0 |
| 20260902203924 | 113 | 162 | 0.0 | 0.0 | 0.00 | 0.00 | 0.00 | 26 | 1018.0 |
| 20260902203419 | 111 | 162 | 0.0 | 0.0 | 0.00 | 0.00 | 0.00 | 28 | 1018.3 |
| 20260902202918 | 108 | 161 | 0.0 | 0.0 | 0.00 | 0.00 | 0.00 | 29 | 1018.2 |
| 20260902202414 | 108 | 161 | 0.0 | 0.0 | 0.00 | 0.00 | 0.00 | 31 | 1018.5 |
| 20260902201911 | 111 | 161 | 0.0 | 0.0 | 0.00 | 0.00 | 0.00 | 28 | 1018.2 |
| 20260902201411 | 112 | 162 | 0.0 | 0.0 | 0.00 | 0.00 | 0.00 | 28 | 1018.3 |
| 20260902200906 | 114 | 162 | 0.0 | 0.0 | 0.00 | 0.00 | 0.00 | 26 | 1018.6 |
| 20260902200401 | 114 | 162 | 0.0 | 0.0 | 0.00 | 0.00 | 0.00 | 26 | 1018.5 |
| 20260902195856 | 108 | 161 | 0.0 | 0.0 | 0.00 | 0.00 | 0.00 | 29 | 1018.5 |
| 20260902195355 | 108 | 161 | 0.0 | 0.0 | 0.00 | 0.00 | 0.00 | 30 | 1018.9 |
| 20260902194850 | 111 | 162 | 0.0 | 0.0 | 0.00 | 0.00 | 0.00 | 28 | 1018.7 |
| 20260902194344 | 106 | 161 | 0.0 | 0.0 | 0.00 | 0.00 | 0.00 | 32 | 1019.0 |
| 20260902193835 | 110 | 161 | 0.0 | 0.0 | 0.00 | 0.00 | 0.00 | 29 | 1019.0 |
| 20260902193331 | 109 | 161 | 0.0 | 0.0 | 0.00 | 0.00 | 0.00 | 30 | 1019.3 |
| 20260902192829 | 114 | 161 | 0.0 | 0.0 | 0.00 | 0.00 | 0.00 | 26 | 1019.2 |
| 20260902192327 | 114 | 162 | 0.0 | 0.0 | 0.00 | 0.00 | 0.00 | 27 | 1019.0 |
| 20260902191822 | 116 | 161 | 0.0 | 0.0 | 0.00 | 0.00 | 0.00 | 26 | 1019.3 |
| 20260902191318 | 116 | 162 | 0.0 | 0.0 | 0.00 | 0.00 | 0.00 | 26 | 1019.3 |
| 20260902190813 | 114 | 161 | 0.0 | 0.0 | 0.00 | 0.00 | 0.00 | 27 | 1019.4 |
| 20260902190312 | 108 | 161 | 0.0 | 0.0 | 0.00 | 0.00 | 0.00 | 30 | 1019.2 |
| 20260902185809 | 104 | 161 | 0.0 | 0.0 | 0.00 | 0.00 | 0.00 | 33 | 1019.5 |
| 20260902185306 | 106 | 161 | 0.0 | 0.0 | 0.00 | 0.00 | 0.00 | 33 | 1019.5 |
| 20260902184800 | 109 | 161 | 0.0 | 0.0 | 0.00 | 0.00 | 0.00 | 30 | 1019.6 |
| 20260902184255 | 114 | 161 | 0.0 | 0.0 | 0.00 | 0.00 | 0.00 | 28 | 1019.8 |
| 20260902183750 | 116 | 161 | 0.0 | 0.0 | 0.00 | 0.00 | 0.00 | 26 | 1019.7 |
| 20260902183246 | 117 | 161 | 0.0 | 0.0 | 0.00 | 0.00 | 0.00 | 26 | 1019.9 |
| 20260902182742 | 115 | 161 | 0.0 | 0.0 | 0.00 | 0.00 | 0.00 | 27 | 1019.9 |
| 20260902182239 | 112 | 161 | 0.0 | 0.0 | 0.00 | 0.00 | 0.00 | 29 | 1020.0 |
| 20260902181735 | 119 | 161 | 0.0 | 0.0 | 0.00 | 0.00 | 0.00 | 25 | 1020.0 |
| 20260902181235 | 116 | 161 | 0.0 | 0.0 | 0.00 | 0.00 | 0.00 | 28 | 1020.1 |
| 20260902180729 | 114 | 161 | 0.0 | 0.0 | 0.00 | 0.00 | 0.00 | 28 | 1020.2 |
| 20260902180224 | 116 | 161 | 0.0 | 0.0 | 0.00 | 0.00 | 0.00 | 27 | 1020.1 |
| 20260902175719 | 116 | 161 | 0.0 | 0.0 | 0.00 | 0.00 | 0.00 | 27 | 1020.3 |
| 20260902175215 | 115 | 161 | 0.0 | 0.0 | 0.00 | 0.00 | 0.00 | 28 | 1020.4 |
| 20260902174711 | 111 | 161 | 0.0 | 0.0 | 0.00 | 0.00 | 0.00 | 30 | 1020.4 |
| 20260902174207 | 111 | 161 | 0.0 | 0.0 | 0.00 | 0.00 | 0.00 | 31 | 1020.7 |
| 20260902173702 | 109 | 161 | 0.0 | 0.0 | 0.00 | 0.00 | 0.00 | 31 | 1020.9 |
| 20260902173157 | 110 | 161 | 0.0 | 0.0 | 0.00 | 0.00 | 0.00 | 32 | 1020.7 |
| 20260902172657 | 111 | 161 | 0.0 | 0.0 | 0.00 | 0.00 | 0.00 | 30 | 1020.6 |
| 20260902172155 | 107 | 161 | 0.0 | 0.0 | 0.00 | 0.00 | 0.00 | 33 | 1020.8 |
| 20260902171650 | 108 | 162 | 0.0 | 0.0 | 0.00 | 0.00 | 0.00 | 33 | 1020.9 |
| 20260902171147 | 114 | 161 | 0.0 | 0.0 | 0.00 | 0.00 | 0.00 | 30 | 1020.9 |
| 20260902170642 | 113 | 161 | 0.0 | 0.0 | 0.00 | 0.00 | 0.00 | 29 | 1021.0 |
| 20260902170137 | 114 | 161 | 0.0 | 0.0 | 0.00 | 0.00 | 0.00 | 30 | 1021.0 |
| 20260902165632 | 112 | 161 | 0.0 | 0.0 | 0.00 | 0.00 | 0.00 | 30 | 1021.1 |
| 20260902165126 | 111 | 161 | 0.0 | 0.0 | 0.00 | 0.00 | 0.00 | 30 | 1021.0 |
| 20260902164621 | 110 | 161 | 0.0 | 0.0 | 0.00 | 0.00 | 0.00 | 30 | 1021.3 |
| 20260902164120 | 107 | 161 | 0.0 | 0.0 | 0.00 | 0.00 | 0.00 | 32 | 1021.1 |
| 20260902163616 | 107 | 161 | 0.0 | 0.0 | 0.00 | 0.00 | 0.00 | 33 | 1021.4 |
| 20260902163114 | 107 | 161 | 0.0 | 0.0 | 0.00 | 0.00 | 0.00 | 33 | 1021.3 |
| 20260902162614 | 104 | 162 | 0.0 | 0.0 | 0.00 | 0.00 | 0.00 | 35 | 1021.3 |
| 20260902162110 | 104 | 162 | 0.0 | 0.0 | 0.00 | 0.00 | 0.00 | 36 | 1021.4 |
| 20260902161605 | 104 | 162 | 0.0 | 0.0 | 0.00 | 0.00 | 0.00 | 36 | 1021.4 |
| 20260902161100 | 103 | 162 | 0.0 | 0.0 | 0.00 | 0.00 | 0.00 | 37 | 1021.6 |
| 20260902160555 | 103 | 162 | 0.0 | 0.0 | 0.00 | 0.00 | 0.00 | 38 | 1021.6 |
| 20260902160051 | 103 | 162 | 0.0 | 0.0 | 0.00 | 0.00 | 0.00 | 38 | 1021.7 |
| 20260902155544 | 102 | 162 | 0.0 | 0.0 | 0.00 | 0.00 | 0.00 | 38 | 1021.7 |
| 20260902155042 | 102 | 162 | 0.0 | 0.0 | 0.00 | 0.00 | 0.00 | 38 | 1021.7 |
| 20260902154538 | 102 | 162 | 0.0 | 0.0 | 0.00 | 0.00 | 0.00 | 39 | 1021.6 |
| 20260902154033 | 101 | 162 | 0.0 | 0.0 | 0.00 | 0.00 | 0.00 | 41 | 1021.4 |
| 20260902153532 | 100 | 162 | 0.0 | 0.0 | 0.00 | 0.00 | 0.00 | 42 | 1021.4 |
| 20260902153027 | 99 | 162 | 0.0 | 0.0 | 0.00 | 0.00 | 0.00 | 42 | 1021.6 |
| 20260902152523 | 98 | 162 | 0.0 | 0.0 | 0.00 | 0.00 | 0.00 | 44 | 1021.4 |
| 20260902152019 | 98 | 162 | 0.0 | 0.0 | 0.00 | 0.00 | 0.00 | 44 | 1021.4 |
| 20260902151514 | 97 | 162 | 0.0 | 0.0 | 0.00 | 0.00 | 0.00 | 46 | 1021.6 |
| 20260902151013 | 98 | 162 | 0.0 | 0.0 | 0.00 | 0.00 | 0.00 | 45 | 1021.6 |
| 20260902150510 | 97 | 162 | 0.0 | 0.0 | 0.00 | 0.00 | 0.00 | 47 | 1021.6 |
| 20260902150009 | 95 | 162 | 0.0 | 0.0 | 0.00 | 0.00 | 0.00 | 47 | 1021.6 |
| 20260902145504 | 94 | 162 | 0.0 | 0.0 | 0.00 | 0.00 | 0.00 | 50 | 1021.8 |
| 20260902144959 | 94 | 162 | 0.0 | 0.0 | 0.00 | 0.00 | 0.00 | 49 | 1021.4 |
| 20260902144456 | 94 | 162 | 0.0 | 0.0 | 0.00 | 0.00 | 0.00 | 50 | 1021.6 |
| 20260902143955 | 92 | 162 | 0.0 | 0.0 | 0.00 | 0.00 | 0.00 | 52 | 1021.7 |
| 20260902143451 | 91 | 162 | 0.0 | 0.0 | 0.00 | 0.00 | 0.00 | 54 | 1021.9 |
| 20260902142941 | 91 | 162 | 0.0 | 0.0 | 0.00 | 0.00 | 0.00 | 55 | 1021.4 |
| 20260902142436 | 90 | 162 | 0.0 | 0.0 | 0.00 | 0.00 | 0.00 | 56 | 1021.6 |
| 20260902141932 | 89 | 162 | 0.0 | 0.0 | 0.00 | 0.00 | 0.00 | 58 | 1021.4 |
| 20260902141426 | 88 | 162 | 0.0 | 0.0 | 0.00 | 0.00 | 0.00 | 59 | 1021.7 |
| 20260902140926 | 88 | 162 | 0.0 | 0.0 | 0.00 | 0.00 | 0.00 | 60 | 1021.7 |
| 20260902140422 | 87 | 162 | 0.0 | 0.0 | 0.00 | 0.00 | 0.00 | 60 | 1021.6 |
| 20260902135921 | 87 | 162 | 0.0 | 0.0 | 0.00 | 0.00 | 0.00 | 61 | 1021.6 |
| 20260902135417 | 86 | 162 | 0.0 | 0.0 | 0.00 | 0.00 | 0.00 | 62 | 1021.6 |
| 20260902134915 | 85 | 162 | 0.0 | 0.0 | 0.00 | 0.00 | 0.00 | 64 | 1021.4 |
| 20260902134412 | 84 | 162 | 0.0 | 0.0 | 0.00 | 0.00 | 0.00 | 66 | 1021.6 |
| 20260902133907 | 83 | 162 | 0.0 | 0.0 | 0.00 | 0.00 | 0.00 | 67 | 1021.6 |
| 20260902133406 | 83 | 162 | 0.0 | 0.0 | 0.00 | 0.00 | 0.00 | 67 | 1021.4 |
| 20260902132901 | 82 | 162 | 0.0 | 0.0 | 0.00 | 0.00 | 0.00 | 69 | 1021.4 |
| 20260902132356 | 81 | 162 | 0.0 | 0.0 | 0.00 | 0.00 | 0.00 | 70 | 1021.4 |
| 20260902131852 | 80 | 162 | 0.0 | 0.0 | 0.00 | 0.00 | 0.00 | 72 | 1021.7 |
| 20260902131349 | 80 | 162 | 0.0 | 0.0 | 0.00 | 0.00 | 0.00 | 74 | 1021.6 |
| 20260902130848 | 78 | 162 | 0.0 | 0.0 | 0.00 | 0.00 | 0.00 | 75 | 1021.6 |
| 20260902130344 | 78 | 162 | 0.0 | 0.0 | 0.00 | 0.00 | 0.00 | 76 | 1021.7 |
| 20260902125838 | 77 | 162 | 0.0 | 0.0 | 0.00 | 0.00 | 0.00 | 78 | 1021.6 |
| 20260902125334 | 76 | 162 | 0.0 | 0.0 | 0.00 | 0.00 | 0.00 | 80 | 1021.4 |
| 20260902124831 | 75 | 162 | 0.0 | 0.0 | 0.00 | 0.00 | 0.00 | 80 | 1021.6 |
| 20260902124326 | 74 | 162 | 0.0 | 0.0 | 0.00 | 0.00 | 0.00 | 81 | 1021.6 |
| 20260902123821 | 74 | 162 | 0.0 | 0.0 | 0.00 | 0.00 | 0.00 | 82 | 1021.7 |
| 20260902123318 | 74 | 161 | 0.0 | 0.0 | 0.00 | 0.00 | 0.00 | 83 | 1021.4 |
| 20260902122816 | 73 | 161 | 0.0 | 0.0 | 0.00 | 0.00 | 0.00 | 83 | 1021.7 |
| 20260902122313 | 73 | 161 | 0.0 | 0.0 | 0.00 | 0.00 | 0.00 | 83 | 1021.3 |
| 20260902121812 | 73 | 161 | 0.0 | 0.0 | 0.00 | 0.00 | 0.00 | 83 | 1021.2 |
| 20260902121307 | 73 | 161 | 0.0 | 0.0 | 0.00 | 0.00 | 0.00 | 84 | 1021.2 |
| 20260902120803 | 73 | 161 | 0.0 | 0.0 | 0.00 | 0.00 | 0.00 | 83 | 1021.2 |
| 20260902120259 | 73 | 161 | 0.0 | 0.0 | 0.00 | 0.00 | 0.00 | 83 | 1021.3 |
| 20260902115753 | 73 | 160 | 0.0 | 0.0 | 0.00 | 0.00 | 0.00 | 83 | 1021.1 |
| 20260902115249 | 73 | 160 | 0.0 | 0.0 | 0.00 | 0.00 | 0.00 | 83 | 1021.0 |
| 20260902114745 | 73 | 160 | 0.0 | 0.0 | 0.00 | 0.00 | 0.00 | 83 | 1020.9 |
| 20260902114241 | 73 | 160 | 0.0 | 0.0 | 0.00 | 0.00 | 0.00 | 82 | 1020.9 |
| 20260902113736 | 73 | 160 | 0.0 | 0.0 | 0.00 | 0.00 | 0.00 | 82 | 1021.0 |
| 20260902113231 | 73 | 160 | 0.0 | 0.0 | 0.00 | 0.00 | 0.00 | 82 | 1020.7 |
| 20260902112730 | 73 | 160 | 0.0 | 0.0 | 0.00 | 0.00 | 0.00 | 82 | 1020.7 |
| 20260902112228 | 74 | 160 | 0.0 | 0.0 | 0.00 | 0.00 | 0.00 | 82 | 1020.8 |
| 20260902111723 | 74 | 160 | 0.0 | 0.0 | 0.00 | 0.00 | 0.00 | 82 | 1020.7 |
| 20260902111219 | 74 | 160 | 0.0 | 0.0 | 0.00 | 0.00 | 0.00 | 82 | 1020.5 |
| 20260902110714 | 74 | 160 | 0.0 | 0.0 | 0.00 | 0.00 | 0.00 | 82 | 1020.5 |
| 20260902110210 | 74 | 160 | 0.0 | 0.0 | 0.00 | 0.00 | 0.00 | 82 | 1020.5 |
| 20260902105710 | 74 | 160 | 0.0 | 0.0 | 0.00 | 0.00 | 0.00 | 81 | 1020.5 |
| 20260902105205 | 74 | 160 | 0.0 | 0.0 | 0.00 | 0.00 | 0.00 | 81 | 1020.6 |
| 20260902104701 | 74 | 160 | 0.0 | 0.0 | 0.00 | 0.00 | 0.00 | 81 | 1020.6 |
| 20260902104157 | 74 | 160 | 0.0 | 0.0 | 0.00 | 0.00 | 0.00 | 81 | 1020.4 |
| 20260902103655 | 74 | 160 | 0.0 | 0.0 | 0.00 | 0.00 | 0.00 | 80 | 1020.7 |
| 20260902103151 | 74 | 160 | 0.0 | 0.0 | 0.00 | 0.00 | 0.00 | 80 | 1020.5 |
| 20260902102647 | 75 | 160 | 0.0 | 0.0 | 0.00 | 0.00 | 0.00 | 80 | 1020.7 |
| 20260902102144 | 75 | 160 | 0.0 | 0.0 | 0.00 | 0.00 | 0.00 | 79 | 1020.3 |
| 20260902101639 | 75 | 160 | 0.0 | 0.0 | 0.00 | 0.00 | 0.00 | 79 | 1020.5 |
| 20260902101138 | 75 | 160 | 0.0 | 0.0 | 0.00 | 0.00 | 0.00 | 79 | 1020.3 |
| 20260902100633 | 75 | 160 | 0.0 | 0.0 | 0.00 | 0.00 | 0.00 | 79 | 1020.3 |
| 20260902100128 | 75 | 160 | 0.0 | 0.0 | 0.00 | 0.00 | 0.00 | 79 | 1020.3 |
| 20260902095627 | 75 | 160 | 0.0 | 0.0 | 0.00 | 0.00 | 0.00 | 79 | 1020.3 |
| 20260902095127 | 75 | 160 | 0.0 | 0.0 | 0.00 | 0.00 | 0.00 | 79 | 1020.2 |
| 20260902094621 | 75 | 160 | 0.0 | 0.0 | 0.00 | 0.00 | 0.00 | 79 | 1020.2 |
| 20260902094118 | 75 | 160 | 0.0 | 0.0 | 0.00 | 0.00 | 0.00 | 79 | 1020.3 |
| 20260902093612 | 75 | 160 | 0.0 | 0.0 | 0.00 | 0.00 | 0.00 | 79 | 1020.3 |
| 20260902093106 | 75 | 160 | 0.0 | 0.0 | 0.00 | 0.00 | 0.00 | 79 | 1020.2 |
| 20260902092601 | 75 | 160 | 0.0 | 0.0 | 0.00 | 0.00 | 0.00 | 78 | 1020.2 |
| 20260902092056 | 75 | 160 | 0.0 | 0.0 | 0.00 | 0.00 | 0.00 | 78 | 1020.2 |
| 20260902091551 | 75 | 160 | 0.0 | 0.0 | 0.00 | 0.00 | 0.00 | 78 | 1020.0 |
| 20260902091047 | 75 | 160 | 0.0 | 0.0 | 0.00 | 0.00 | 0.00 | 78 | 1020.0 |
| 20260902090543 | 76 | 160 | 0.0 | 0.0 | 0.00 | 0.00 | 0.00 | 78 | 1020.0 |
| 20260902090042 | 76 | 160 | 0.0 | 0.0 | 0.00 | 0.00 | 0.00 | 78 | 1019.9 |
| 20260902085536 | 76 | 161 | 0.0 | 0.0 | 0.00 | 0.00 | 0.00 | 78 | 1020.2 |
| 20260902085031 | 76 | 161 | 0.0 | 0.0 | 0.00 | 0.00 | 0.00 | 78 | 1020.2 |
| 20260902084522 | 76 | 161 | 0.0 | 0.0 | 0.00 | 0.00 | 0.00 | 78 | 1020.2 |
| 20260902084017 | 76 | 161 | 0.0 | 0.0 | 0.00 | 0.00 | 0.00 | 78 | 1020.1 |
| 20260902083513 | 76 | 161 | 0.0 | 0.0 | 0.00 | 0.00 | 0.00 | 77 | 1020.0 |
| 20260902083007 | 76 | 161 | 0.0 | 0.0 | 0.00 | 0.00 | 0.00 | 77 | 1020.2 |
| 20260902082503 | 76 | 161 | 0.0 | 0.0 | 0.00 | 0.00 | 0.00 | 77 | 1020.3 |
| 20260902081958 | 76 | 161 | 0.0 | 0.0 | 0.00 | 0.00 | 0.00 | 77 | 1020.1 |
| 20260902081455 | 76 | 161 | 0.0 | 0.0 | 0.00 | 0.00 | 0.00 | 78 | 1020.3 |
| 20260902080949 | 76 | 161 | 0.0 | 0.0 | 0.00 | 0.00 | 0.00 | 77 | 1020.3 |
| 20260902080446 | 76 | 161 | 0.0 | 0.0 | 0.00 | 0.00 | 0.00 | 77 | 1020.2 |
| 20260902075945 | 76 | 161 | 0.0 | 0.0 | 0.00 | 0.00 | 0.00 | 77 | 1020.2 |
| 20260902075441 | 76 | 161 | 0.0 | 0.0 | 0.00 | 0.00 | 0.00 | 77 | 1020.1 |
| 20260902074936 | 76 | 161 | 0.0 | 0.0 | 0.00 | 0.00 | 0.00 | 76 | 1020.3 |
| 20260902074432 | 76 | 161 | 0.0 | 0.0 | 0.00 | 0.00 | 0.00 | 76 | 1020.2 |
| 20260902073927 | 76 | 161 | 0.0 | 0.0 | 0.00 | 0.00 | 0.00 | 76 | 1020.2 |
| 20260902073423 | 76 | 161 | 0.0 | 0.0 | 0.00 | 0.00 | 0.00 | 76 | 1020.1 |
| 20260902072919 | 76 | 161 | 0.0 | 0.0 | 0.00 | 0.00 | 0.00 | 76 | 1020.3 |
| 20260902072414 | 76 | 161 | 0.0 | 0.0 | 0.00 | 0.00 | 0.00 | 76 | 1020.2 |
| 20260902071911 | 76 | 161 | 0.0 | 0.0 | 0.00 | 0.00 | 0.00 | 75 | 1020.1 |
| 20260902071410 | 76 | 161 | 0.0 | 0.0 | 0.00 | 0.00 | 0.00 | 75 | 1020.3 |
| 20260902070907 | 77 | 161 | 0.0 | 0.0 | 0.00 | 0.00 | 0.00 | 75 | 1020.2 |
| 20260902070402 | 77 | 161 | 0.0 | 0.0 | 0.00 | 0.00 | 0.00 | 74 | 1020.1 |
| 20260902065900 | 77 | 161 | 0.0 | 0.0 | 0.00 | 0.00 | 0.00 | 74 | 1020.1 |
| 20260902065356 | 77 | 161 | 0.0 | 0.0 | 0.00 | 0.00 | 0.00 | 74 | 1020.1 |
| 20260902064851 | 77 | 161 | 0.0 | 0.0 | 0.00 | 0.00 | 0.00 | 73 | 1020.2 |
| 20260902064347 | 77 | 161 | 0.0 | 0.0 | 0.00 | 0.00 | 0.00 | 72 | 1020.1 |
| 20260902063842 | 77 | 161 | 0.0 | 0.0 | 0.00 | 0.00 | 0.00 | 72 | 1020.3 |
| 20260902063336 | 78 | 161 | 0.0 | 0.0 | 0.00 | 0.00 | 0.00 | 71 | 1020.1 |
| 20260902062830 | 78 | 161 | 0.0 | 0.0 | 0.00 | 0.00 | 0.00 | 70 | 1020.2 |
| 20260902062325 | 78 | 161 | 0.0 | 0.0 | 0.00 | 0.00 | 0.00 | 69 | 1020.0 |
| 20260902061825 | 78 | 161 | 0.0 | 0.0 | 0.00 | 0.00 | 0.00 | 69 | 1020.2 |
| 20260902061320 | 78 | 161 | 0.0 | 0.0 | 0.00 | 0.00 | 0.00 | 68 | 1020.1 |
| 20260902060816 | 78 | 161 | 0.0 | 0.0 | 0.00 | 0.00 | 0.00 | 68 | 1019.8 |
| 20260902060312 | 78 | 161 | 0.0 | 0.0 | 0.00 | 0.00 | 0.00 | 68 | 1019.9 |
| 20260902055807 | 78 | 161 | 0.0 | 0.0 | 0.00 | 0.00 | 0.00 | 68 | 1020.0 |
| 20260902055258 | 78 | 161 | 0.0 | 0.0 | 0.00 | 0.00 | 0.00 | 68 | 1020.2 |
| 20260902054752 | 78 | 161 | 0.0 | 0.0 | 0.00 | 0.00 | 0.00 | 68 | 1019.9 |
| 20260902054248 | 78 | 161 | 0.0 | 0.0 | 0.00 | 0.00 | 0.00 | 68 | 1019.8 |
| 20260902053743 | 78 | 161 | 0.0 | 0.0 | 0.00 | 0.00 | 0.00 | 68 | 1019.9 |
| 20260902053242 | 79 | 161 | 0.0 | 0.0 | 0.00 | 0.00 | 0.00 | 68 | 1020.0 |
| 20260902052737 | 79 | 161 | 0.0 | 0.0 | 0.00 | 0.00 | 0.00 | 67 | 1019.9 |
| 20260902052232 | 79 | 161 | 0.0 | 0.0 | 0.00 | 0.00 | 0.00 | 67 | 1019.8 |
| 20260902051731 | 79 | 161 | 0.0 | 0.0 | 0.00 | 0.00 | 0.00 | 66 | 1020.0 |
| 20260902051221 | 79 | 161 | 0.0 | 0.0 | 0.00 | 0.00 | 0.00 | 66 | 1019.9 |
| 20260902050715 | 79 | 161 | 0.0 | 0.0 | 0.00 | 0.00 | 0.00 | 66 | 1019.9 |
| 20260902050210 | 79 | 161 | 0.0 | 0.0 | 0.00 | 0.00 | 0.00 | 66 | 1020.0 |
| 20260902045705 | 79 | 161 | 0.0 | 0.0 | 0.00 | 0.00 | 0.00 | 65 | 1019.8 |
| 20260902045201 | 79 | 161 | 0.0 | 0.0 | 0.00 | 0.00 | 0.00 | 65 | 1019.9 |
| 20260902044656 | 79 | 161 | 0.0 | 0.0 | 0.00 | 0.00 | 0.00 | 65 | 1019.7 |
| 20260902044152 | 79 | 161 | 0.0 | 0.0 | 0.00 | 0.00 | 0.00 | 65 | 1019.7 |
| 20260902043646 | 79 | 161 | 0.0 | 0.0 | 0.00 | 0.00 | 0.00 | 64 | 1019.9 |
| 20260902043142 | 79 | 161 | 0.0 | 0.0 | 0.00 | 0.00 | 0.00 | 64 | 1019.6 |
| 20260902042636 | 79 | 161 | 0.0 | 0.0 | 0.00 | 0.00 | 0.00 | 64 | 1019.7 |
| 20260902042131 | 79 | 161 | 0.0 | 0.0 | 0.00 | 0.00 | 0.00 | 64 | 1019.7 |
| 20260902041631 | 79 | 161 | 0.0 | 0.0 | 0.00 | 0.00 | 0.00 | 64 | 1019.9 |
| 20260902041126 | 79 | 161 | 0.0 | 0.0 | 0.00 | 0.00 | 0.00 | 64 | 1019.8 |
| 20260902040625 | 79 | 161 | 0.0 | 0.0 | 0.00 | 0.00 | 0.00 | 64 | 1019.7 |
| 20260902040120 | 80 | 161 | 0.0 | 0.0 | 0.00 | 0.00 | 0.00 | 64 | 1019.5 |
| 20260902035618 | 80 | 161 | 0.0 | 0.0 | 0.00 | 0.00 | 0.00 | 63 | 1019.7 |
| 20260902035114 | 80 | 161 | 0.0 | 0.0 | 0.00 | 0.00 | 0.00 | 63 | 1019.7 |
| 20260902034613 | 80 | 161 | 0.0 | 0.0 | 0.00 | 0.00 | 0.00 | 63 | 1019.5 |
| 20260902034107 | 80 | 161 | 0.0 | 0.0 | 0.00 | 0.00 | 0.00 | 63 | 1019.7 |
| 20260902033606 | 80 | 161 | 0.0 | 0.0 | 0.00 | 0.00 | 0.00 | 63 | 1019.6 |
| 20260902033101 | 80 | 161 | 0.0 | 0.0 | 0.00 | 0.00 | 0.00 | 63 | 1019.7 |
| 20260902032600 | 80 | 161 | 0.0 | 0.0 | 0.00 | 0.00 | 0.00 | 63 | 1019.7 |
| 20260902032055 | 80 | 161 | 0.0 | 0.0 | 0.00 | 0.00 | 0.00 | 63 | 1019.7 |
| 20260902031549 | 80 | 161 | 0.0 | 0.0 | 0.00 | 0.00 | 0.00 | 63 | 1019.6 |
| 20260902031045 | 80 | 161 | 0.0 | 0.0 | 0.00 | 0.00 | 0.00 | 64 | 1019.5 |
| 20260902030540 | 79 | 161 | 0.0 | 0.0 | 0.00 | 0.00 | 0.00 | 65 | 1019.4 |
| 20260902030040 | 79 | 161 | 0.0 | 0.0 | 0.00 | 0.00 | 0.00 | 66 | 1019.4 |
| 20260902025534 | 79 | 161 | 0.0 | 0.0 | 0.00 | 0.00 | 0.00 | 66 | 1019.3 |
| 20260902025030 | 79 | 161 | 0.0 | 0.0 | 0.00 | 0.00 | 0.00 | 66 | 1019.5 |
| 20260902024525 | 80 | 161 | 0.0 | 0.0 | 0.00 | 0.00 | 0.00 | 65 | 1019.3 |
| 20260902024020 | 80 | 161 | 0.0 | 0.0 | 0.00 | 0.00 | 0.00 | 65 | 1019.1 |
| 20260902023515 | 80 | 161 | 0.0 | 0.0 | 0.00 | 0.00 | 0.00 | 64 | 1019.0 |
| 20260902023010 | 80 | 161 | 0.0 | 0.0 | 0.00 | 0.00 | 0.00 | 64 | 1019.0 |
| 20260902022504 | 81 | 161 | 0.0 | 0.0 | 0.00 | 0.00 | 0.00 | 63 | 1019.1 |
| 20260902022000 | 80 | 161 | 0.0 | 0.0 | 0.00 | 0.00 | 0.00 | 64 | 1019.1 |
| 20260902021455 | 80 | 161 | 0.0 | 0.0 | 0.00 | 0.00 | 0.00 | 64 | 1019.0 |
| 20260902020950 | 80 | 161 | 0.0 | 0.0 | 0.00 | 0.00 | 0.00 | 65 | 1018.9 |
| 20260902020446 | 81 | 161 | 0.0 | 0.0 | 0.00 | 0.00 | 0.00 | 64 | 1018.6 |
| 20260902015942 | 81 | 161 | 0.0 | 0.0 | 0.00 | 0.00 | 0.00 | 63 | 1018.7 |
| 20260902015437 | 82 | 161 | 0.0 | 0.0 | 0.00 | 0.00 | 0.00 | 62 | 1018.6 |
| 20260902014932 | 82 | 161 | 0.0 | 0.0 | 0.00 | 0.00 | 0.00 | 61 | 1018.5 |
| 20260902014429 | 82 | 161 | 0.0 | 0.0 | 0.00 | 0.00 | 0.00 | 61 | 1018.5 |
| 20260902013928 | 83 | 161 | 0.0 | 0.0 | 0.00 | 0.00 | 0.00 | 60 | 1018.4 |
| 20260902013424 | 83 | 161 | 0.0 | 0.0 | 0.00 | 0.00 | 0.00 | 59 | 1018.3 |
| 20260902012919 | 84 | 161 | 0.0 | 0.0 | 0.00 | 0.00 | 0.00 | 58 | 1018.3 |
| 20260902012415 | 85 | 161 | 0.0 | 0.0 | 0.00 | 0.00 | 0.00 | 57 | 1018.3 |